Location: Gollag?dem
(16.8053°N, 80.8024°E)
Time: 18:57:39
(UTC+00:00)

Cosmos 1805 Rocket - Pass Details

Date: 13 August 2020
Orbit: 605 x 630 km, 82.5° (Epoch: 20 September)

Event Time Altitude Azimuth Distance (km) Brightness Sun altitude
Rises 13:41:09 0° 169° (S) 2,880 6.7 -9.6°
Reaches altitude 10° 13:43:27 10° 162° (SSE) 1,981 5.8 -10.1°
Maximum altitude 13:47:34 40° 92° (E) 914 4.0 -11.0°
Drops below altitude 10° 13:51:43 10° 23° (NNE) 1,997 6.1 -12.0°
Sets 13:54:03 0° 16° (NNE) 2,908 7.1 -12.5°
